| time (UTC) | temp F | wind direction | speed knots | gust knots | rain 1hr in | rain 24hr in | rain mn in | humidity % | barometer mb |
| 20260504080332 | 53 | 0 | 0.0 | 0.9 | 0.00 | 0.00 | 0.00 | 72 | 1002.9 |
| 20260504050107 | 58 | 0 | 0.0 | 2.6 | 0.00 | 0.00 | 0.00 | 64 | 1004.5 |
| 20260504044602 | 58 | 301 | 0.0 | 1.7 | 0.00 | 0.00 | 0.00 | 64 | 1004.4 |
| 20260504043107 | 58 | 0 | 0.0 | 2.6 | 0.00 | 0.00 | 0.00 | 63 | 1004.4 |
| 20260504041601 | 59 | 0 | 0.0 | 0.0 | 0.00 | 0.00 | 0.00 | 63 | 1004.5 |
| 20260504034555 | 59 | 302 | 0.0 | 0.9 | 0.00 | 0.00 | 0.00 | 62 | 1004.8 |
| 20260504033058 | 60 | 0 | 0.0 | 0.9 | 0.00 | 0.00 | 0.00 | 61 | 1004.9 |
| 20260504031558 | 60 | 0 | 0.0 | 1.7 | 0.00 | 0.00 | 0.00 | 60 | 1005.1 |
| 20260504030058 | 60 | 302 | 0.0 | 1.7 | 0.00 | 0.00 | 0.00 | 59 | 1005.1 |
| 20260504024615 | 61 | 0 | 0.0 | 0.9 | 0.00 | 0.00 | 0.00 | 59 | 1005.1 |
| 20260504023055 | 61 | 0 | 0.0 | 0.9 | 0.00 | 0.00 | 0.00 | 58 | 1005.2 |
| 20260504021557 | 61 | 0 | 0.0 | 0.0 | 0.00 | 0.00 | 0.00 | 57 | 1005.1 |
| 20260504020055 | 62 | 0 | 0.0 | 0.0 | 0.00 | 0.00 | 0.00 | 55 | 1005.1 |
| 20260504014605 | 62 | 0 | 0.0 | 0.0 | 0.00 | 0.00 | 0.00 | 53 | 1004.9 |
| 20260504013101 | 63 | 0 | 0.0 | 0.0 | 0.00 | 0.00 | 0.00 | 51 | 1004.6 |
| 20260504011604 | 64 | 0 | 0.0 | 0.0 | 0.00 | 0.00 | 0.00 | 50 | 1004.6 |
| 20260504010109 | 65 | 0 | 0.0 | 0.9 | 0.00 | 0.00 | 0.00 | 48 | 1004.5 |
| 20260504004601 | 66 | 0 | 0.0 | 2.6 | 0.00 | 0.00 | 0.00 | 47 | 1004.5 |
| 20260504003059 | 67 | 0 | 0.9 | 2.6 | 0.00 | 0.00 | 0.00 | 45 | 1004.6 |
| 20260504001608 | 67 | 0 | 0.0 | 2.6 | 0.00 | 0.00 | 0.00 | 44 | 1004.5 |
| 20260504000139 | 68 | 0 | 0.0 | 8.7 | 0.00 | 0.00 | 0.00 | 45 | 1004.4 |
| 20260503234604 | 68 | 308 | 0.9 | 9.6 | 0.00 | 0.00 | 0.00 | 44 | 1004.4 |
| 20260503233108 | 68 | 305 | 0.9 | 9.6 | 0.00 | 0.00 | 0.00 | 43 | 1004.5 |
| 20260503231558 | 68 | 225 | 1.7 | 8.7 | 0.00 | 0.00 | 0.00 | 43 | 1004.6 |
| 20260503224605 | 68 | 254 | 1.7 | 9.6 | 0.00 | 0.00 | 0.00 | 42 | 1004.8 |
| 20260503223057 | 68 | 301 | 1.7 | 12.2 | 0.00 | 0.00 | 0.00 | 42 | 1005.0 |
| 20260503221559 | 68 | 318 | 2.6 | 9.6 | 0.00 | 0.00 | 0.00 | 41 | 1005.0 |
| 20260503220057 | 68 | 315 | 2.6 | 7.0 | 0.00 | 0.00 | 0.00 | 41 | 1005.2 |
| 20260503214555 | 69 | 277 | 1.7 | 11.3 | 0.00 | 0.00 | 0.00 | 40 | 1005.5 |
| 20260503213055 | 68 | 271 | 4.3 | 16.5 | 0.00 | 0.00 | 0.00 | 40 | 1005.6 |
| 20260503211617 | 66 | 0 | 2.6 | 13.0 | 0.00 | 0.00 | 0.00 | 41 | 1005.8 |
| 20260503210056 | 68 | 301 | 2.6 | 13.0 | 0.00 | 0.00 | 0.00 | 39 | 1006.0 |
| 20260503204555 | 67 | 273 | 4.3 | 12.2 | 0.00 | 0.00 | 0.00 | 42 | 1006.3 |
| 20260503203110 | 66 | 241 | 3.5 | 10.4 | 0.00 | 0.00 | 0.00 | 44 | 1006.8 |
| 20260503201557 | 66 | 304 | 3.5 | 9.6 | 0.00 | 0.00 | 0.00 | 46 | 1007.1 |
| 20260503200058 | 64 | 266 | 3.5 | 11.3 | 0.00 | 0.00 | 0.00 | 47 | 1007.4 |
| 20260503194558 | 63 | 298 | 4.3 | 13.9 | 0.00 | 0.00 | 0.00 | 48 | 1007.4 |
| 20260503193057 | 63 | 238 | 2.6 | 13.0 | 0.00 | 0.00 | 0.00 | 49 | 1007.6 |
| 20260503191555 | 62 | 298 | 3.5 | 14.8 | 0.00 | 0.00 | 0.00 | 48 | 1007.7 |
| 20260503190059 | 62 | 302 | 2.6 | 15.6 | 0.00 | 0.00 | 0.00 | 51 | 1007.7 |
| 20260503184557 | 60 | 227 | 2.6 | 10.4 | 0.00 | 0.00 | 0.00 | 52 | 1008.0 |
| 20260503183058 | 59 | 307 | 1.7 | 14.8 | 0.00 | 0.00 | 0.00 | 53 | 1008.2 |
| 20260503181604 | 59 | 248 | 2.6 | 12.2 | 0.00 | 0.00 | 0.00 | 54 | 1008.6 |
| 20260503180111 | 60 | 240 | 3.5 | 16.5 | 0.00 | 0.00 | 0.00 | 54 | 1009.3 |
| 20260503174555 | 59 | 223 | 1.7 | 13.9 | 0.00 | 0.00 | 0.00 | 56 | 1009.7 |
| 20260503173101 | 57 | 327 | 3.5 | 12.2 | 0.00 | 0.00 | 0.00 | 59 | 1010.2 |
| 20260503171559 | 54 | 236 | 2.6 | 13.0 | 0.00 | 0.00 | 0.00 | 66 | 1010.5 |
| 20260503100103 | 47 | 0 | 0.0 | 3.5 | 0.00 | 0.00 | 0.00 | 57 | 1012.5 |
| 20260503081559 | 47 | 300 | 0.0 | 4.3 | 0.00 | 0.00 | 0.00 | 54 | 1013.2 |